Location: Peebles
(55.6412°N, 3.1714°W)
Time: 21:35:15
(UTC+00:00)

FENGYUN 1C DEB - Pass Details

Date: 10 February 2023
Orbit: 707 x 862 km, 98.5° (Epoch: 07 November)

Event Time Altitude Azimuth Distance (km) Brightness Sun altitude
Rises 19:05:52 0° 156° (SSE) 3,399 ? -17.2°
Reaches altitude 10° 19:08:13 10° 155° (SSE) 2,472 ? -17.5°
Maximum altitude 19:13:44 78° 70° (ENE) 875 ? -18.3°
Drops below altitude 10° 19:19:14 10° 346° (NNW) 2,469 ? -19.1°
Sets 19:21:36 0° 345° (NNW) 3,395 ? -19.4°
